DECAYED

STARLINK-5957, 55995 (Decayed)

Orbit data source: Space-Track

STARLINK-5957, 55995 was a payload satellite owned by SpaceX/Seattle (US) in LEO that was launched on Fri, 24 Mar 2023 UTC via an FALCON 9 launch vehicle from the Air Force Eastern Test Range (AFETR). Payload-class satellites include a variety of spacecraft equipped with specific instruments for various scientific and technological missions. These include communications satellites like Starlink; space stations such as the ISS; scientific satellites like the Hubble; Earth observation satellites from companies like Planet Labs, Umbra, and HawkEye 360; GPS; miniature CubeSats for education and research; and military/defense satellites.

Not visible in the next 10 days
Identifier
55995, 2023-042K
Orbit
Decayed
Country
Flag of USUS
Related business
Manufacturer
SpaceX/Seattle
Mission
Decayed Commercial Communications
Bus & Motor
STARLINK, Unknown motor
Mass
305 kg wet, ~290 kg dry
Launch date (UTC)
2023-03-24 (3 years ago)
Launch vehicle
FALCON 9
Launch site
Air Force Eastern Test Range (AFETR)
Object type
Payload
Rocket body
Debris
Shape & HBR
Box + 1 Pan, 10.1 m
Radar Cross Section
11.087 m², Large (>1 m²)

Expand to show TLE details & history
Last TLE update: 6 months ago

TLE from 6 months ago
0 STARLINK-5957
1 55995U 23042K   25360.43500531  .06759416  92653-5  62829-3 0  9999
2 55995  42.9846  62.5142 0001126 291.3871  68.6901 16.37748398152250
Epoch: 2025-12-26T10:26Z
TLE epoch observation values (Epoch: 2025-12-26T10:26:24.458Z)
Latitude
-0.00001°
Longitude
170.73655°
Altitude
171.294 km
Speed
7.806 km/s
True Right ascension
04h 10m 03s
True Declination
0° 00' 00"
Sunlit
Object was in full shadow at epoch
Visualization orbit readout
Latitude
Unknown
Longitude
Unknown
Altitude
Unknown
Speed
Unknown
Apparent Right ascension
Unknown
Apparent Declination
Unknown
Sunlit
N/A
Visualization observer readout
Local Sidereal Time
21:27:42
Azimuth
Unknown
Elevation
Unknown
Doppler factor
Unknown
Orbital elements
Apogee altitude
174.577 km
Perigee altitude
173.101 km
Semi-major axis
6,551.976 km
Eccentricity
0.00011
Inclination
42.9846°
RAAN
62.5142°
Arg. of periapsis
291.3871°
True anomaly
68.70212°
Mean anomaly
68.6901°
Eccentric anomaly
68.69611°
Mean motion
4.09246 °/min
Orbital period
87.97 mins
BSTAR
0.00062829
Loading maneuver chart data...
Computing Atmospheric mass density...
Loading historical data...
Loading historical data...
Loading historical data...
Loading historical data...
Loading historical data...
Loading historical data...
Loading historical data...

Documentation

Showing up to 5 results
|